Location: Newark
(0.5300°S, 127.4800°E)
Time: 08:12:14
(UTC+00:00)

A-11 Canister half - Pass Details

Date: 20 September 2019
Orbit: 1514 x 1686 km, 47.2° (Epoch: 21 October)

Event Time Altitude Azimuth Distance (km) Brightness Sun altitude
Rises 01:02:08 0° 267° (W) 4,768 11.2 54.5°
Reaches altitude 10° 01:08:35 10° 298° (WNW) 3,734 10.9 56.2°
Maximum altitude 01:11:10 11° 314° (NW) 3,614 10.9 56.8°
Drops below altitude 10° 01:13:44 10° 331° (NNW) 3,701 11.0 57.4°
Sets 01:20:07 0° 3° (N) 4,652 11.6 59.0°
